Location: Newark
(43.9494°N, 6.8108°E)
Time: 11:39:18
(UTC+00:00)

A-11 Canister half - Pass Details

Date: 30 October 2019
Orbit: 1514 x 1686 km, 47.2° (Epoch: 12 November)

Event Time Altitude Azimuth Distance (km) Brightness Sun altitude
Rises 23:34:32 0° 247° (WSW) 4,932 - -59.7°
Reaches altitude 10° 23:37:43 10° 247° (WSW) 3,938 - -59.6°
Maximum altitude 23:47:53 90° 170° (S) 1,657 - -59.2°
Exits shadow 23:57:45 10° 71° (ENE) 3,829 11.2 -58.7°
Drops below altitude 10° 23:57:47 10° 71° (ENE) 3,836 11.2 -58.7°
Sets 00:00:50 0° 71° (ENE) 4,800 11.9 -58.5°
